Location: Bamazo
(6.7448°N, 10.8189°W)
Time: 01:17:19
(UTC+00:00)

ARIANE 3 DEB - Pass Details

Date: 18 September 2020
Orbit: 274 x 4823 km, 6.8° (Epoch: 20 October)

Event Time Altitude Azimuth Distance (km) Brightness Sun altitude
Rises 20:17:45 0° 261° (W) 2,512 7.5 -24.8°
Reaches altitude 10° 20:19:25 10° 253° (WSW) 1,878 6.4 -25.2°
Maximum altitude 20:23:30 46° 179° (S) 1,182 4.3 -26.2°
Enters shadow 20:24:17 43° 157° (SSE) 1,308 4.4 -26.4°
